STARLINK-35508, 65912

Orbit data source: Space-Track

STARLINK-35508, 65912 is a payload satellite owned by SpaceX/Seattle (US) in LEO that was launched on Wed, 08 Oct 2025 UTC via an FALCON 9 launch vehicle from the Air Force Western Test Range (AFWTR). Payload-class satellites include a variety of spacecraft equipped with specific instruments for various scientific and technological missions. These include communications satellites like Starlink; space stations such as the ISS; scientific satellites like the Hubble; Earth observation satellites from companies like Planet Labs, Umbra, and HawkEye 360; GPS; miniature CubeSats for education and research; and military/defense satellites.

Loading next visibility...
Identifier
65912, 2025-225C
Orbit
LEO
Country
Flag of USUS
Related business
Manufacturer
SpaceX/Seattle
Mission
Operational Commercial Communications
Bus & Motor
STARLINK V2MO, Unknown motor
Mass
575 kg wet, ~530 kg dry
Launch date (UTC)
2025-10-08 (8 months ago)
Launch vehicle
FALCON 9
Launch site
Air Force Western Test Range (AFWTR)
Object type
Payload
Rocket body
Debris
Shape & HBR
Box + 2 Pan, 17.7 m
Radar Cross Section
36.964 m², Large (>1 m²)

Expand to show TLE details & history
Last TLE update: 11 hours ago

TLE from 11 hours ago
0 STARLINK-35508
1 65912U 25225C   26151.28234852  .00029397  00000-0  87776-3 0  9996
2 65912  53.1596 142.0344 0001619 102.9225 257.1958 15.34400518 37053
Epoch: 2026-05-31T06:46Z
TLE epoch observation values (Epoch: 2026-05-31T06:46:34.912Z)
Latitude
-0.00004°
Longitude
151.60264°
Altitude
463.849 km
Speed
7.636 km/s
True Right ascension
09h 28m 08s
True Declination
0° 00' 00"
Sunlit
Object was in daylight at epoch
Visualization orbit readout
Latitude
Unknown
Longitude
Unknown
Altitude
Unknown
Speed
Unknown
Apparent Right ascension
Unknown
Apparent Declination
Unknown
Sunlit
N/A
Visualization observer readout
Local Sidereal Time
03:18:01
Azimuth
Unknown
Elevation
Unknown
Doppler factor
Unknown
Orbital elements
Apogee altitude
464.066 km
Perigee altitude
461.851 km
Semi-major axis
6,841.096 km
Eccentricity
0.00016
Inclination
53.1596°
RAAN
142.0344°
Arg. of periapsis
102.9225°
True anomaly
257.17771°
Mean anomaly
257.1958°
Eccentric anomaly
257.18675°
Mean motion
3.83579 °/min
Orbital period
93.85 mins
BSTAR
0.00087776
Loading maneuver chart data...
Computing Atmospheric mass density...
Loading historical data...
Loading historical data...
Loading historical data...
Loading historical data...
Loading historical data...
Loading historical data...
Loading historical data...

Documentation

Showing up to 5 results
|